Temperature
30 31 31 31 32 32 32 31 31 31 31 30 30 30 29 28 27 27 26 25 24 23 22 21 20 20 19 19 19 19 18 18 18 18 18 17 17 17 17 17 17 17 17 17
30 30 31 32 31 31 31 31 31 31 30 30 30 30 30 28 27 27 26 25 25 24 22 21 20 20 19 19 19 19 19 18 18 18 18 17 17 17 17 17 17 17 17 17
30 31 31 31 31 31 31 31 31 30 30 30 30 30 29 29 27 26 26 26 25 24 23 22 21 20 20 19 19 19 19 19 18 18 18 17 17 17 17 17 17 17 17 17
31 31 30 31 31 31 31 31 31 30 30 30 30 30 30 29 28 27 26 26 25 24 23 22 21 20 20 20 19 19 19 19 19 18 18 18 18 18 18 17 17 17 17 17
30 30 30 30 31 31 31 31 31 31 30 30 30 30 30 29 28 28 27 26 26 25 24 22 22 21 20 20 19 19 19 19 19 18 18 18 18 18 18 17 17 17 17 17
31 30 30 30 31 30 30 30 30 30 31 29 30 30 29 29 28 28 27 26 25 24 23 22 22 21 20 20 19 19 19 19 19 18 18 18 18 18 18 18 18 17 17 17
30 30 30 30 30 30 30 30 30 29 30 29 30 29 29 29 28 28 27 26 25 24 23 22 21 21 21 20 20 19 19 19 19 18 18 18 18 18 18 18 17 17 17 17
29 29 30 30 30 30 30 30 29 29 29 30 29 29 29 29 28 27 26 26 25 24 23 22 21 21 20 20 19 19 19 19 18 18 18 18 18 18 18 17 17 17 17 18
30 29 30 29 30 30 30 30 31 30 30 29 30 29 29 28 28 27 26 26 25 24 23 22 22 21 20 20 19 19 19 19 18 18 18 18 18 18 18 17 17 17 17 17
30 29 29 29 29 29 30 31 30 30 28 28 29 29 29 28 27 27 26 26 25 24 23 22 22 21 20 20 19 19 19 19 19 18 18 18 18 18 18 18 17 17 17 17
30 29 29 29 29 29 29 29 29 30 29 29 28 29 29 28 27 27 26 25 24 23 23 22 21 21 20 20 19 19 19 19 18 18 18 18 18 18 18 17 18 18 18 17
28 29 28 29 29 29 29 29 29 29 28 29 29 29 28 27 27 26 26 24 23 23 22 22 21 20 20 20 19 19 19 18 18 18 18 18 18 18 17 17 17 17 17 17
28 28 27 28 28 28 28 28 29 30 29 29 29 28 27 26 26 25 24 24 23 22 22 21 21 20 19 19 19 19 19 18 18 18 18 18 18 18 18 18 17 17 17 17
27 27 27 27 28 28 28 27 28 29 29 29 29 28 27 26 26 25 24 23 22 21 21 21 20 20 19 19 19 18 18 18 18 18 18 18 18 18 17 17 17 17 17 17
27 27 27 27 27 27 27 27 27 27 28 28 28 28 26 26 25 24 23 22 22 21 20 20 19 19 19 18 18 18 18 18 18 17 17 17 17 17 17 17 17 17 17 16
26 26 26 26 27 27 26 26 27 27 27 27 27 27 26 25 24 23 22 21 21 20 20 19 19 18 18 18 18 18 18 18 18 17 17 17 17 17 17 17 17 16 16 16
26 25 25 26 26 26 26 26 27 27 27 27 27 26 25 24 23 22 21 21 20 19 19 18 18 18 18 18 18 17 17 17 17 17 17 17 17 16 16 16 16 16 16 16
24 24 25 26 25 24 26 26 26 26 26 26 26 25 24 23 22 21 20 20 19 19 18 18 18 18 18 17 17 17 17 17 17 17 17 17 16 16 16 16 16 16 16 16
24 24 25 25 25 25 25 25 25 25 25 25 25 24 23 22 21 21 19 19 18 18 17 17 17 17 17 17 17 17 16 16 16 16 16 16 16 16 16 15 15 15 15 15
23 23 24 24 24 24 25 25 24 25 24 24 23 23 22 22 23 22 19 18 18 17 17 17 17 17 17 16 16 16 16 16 16 16 16 16 16 16 15 15 15 15 15 15
23 22 23 24 24 25 24 23 23 24 24 22 22 21 21 22 21 19 18 17 17 17 17 17 17 16 16 16 16 16 16 15 15 16 16 15 15 15 15 15 15 14 14 14
23 23 23 23 23 24 22 23 23 22 21 21 20 20 20 19 18 18 17 17 17 16 16 16 16 16 16 16 15 15 15 15 15 15 15 15 15 15 15 14 14 14 14 14
23 23 24 23 23 21 21 21 20 20 20 19 19 19 18 18 18 17 17 16 16 16 16 16 16 15 15 15 15 15 15 15 14 14 14 14 14 14 14 14 14 14 14 14
21 20 21 21 21 20 19 19 19 19 19 18 18 18 18 17 17 17 16 16 16 15 15 15 15 15 15 14 14 14 14 14 14 14 14 14 14 14 14 14 13 13 13 13
21 20 21 20 20 19 19 18 18 18 17 17 17 17 17 17 17 16 16 16 15 15 15 15 15 15 14 14 14 14 14 14 14 14 14 14 14 14 13 13 13 13 13 12
21 20 20 21 20 19 18 17 17 17 17 17 17 17 17 17 16 16 16 15 15 15 15 14 14 14 14 14 14 14 14 13 13 14 13 14 14 14 14 13 13 13 12 12
Wind_Speed
6 8 8 7 7 7 7 6 5 3 1 2 2 1 2 4 6 7 8 9 9 9 9 8 8 7 6 6 5 5 5 5 4 3 3 3 3 2 2 2 3 3 3 3
8 10 8 6 6 8 8 8 5 2 1 3 2 2 1 4 5 6 8 9 9 9 9 9 9 8 7 7 7 6 6 6 5 4 3 2 2 2 2 2 3 2 3 3
11 5 4 7 8 8 9 8 6 4 3 4 4 2 2 4 4 5 6 7 8 9 10 10 10 9 8 8 8 7 7 7 6 5 4 3 3 2 2 2 2 2 3 3
9 6 6 8 8 8 8 6 7 6 7 4 5 4 1 3 4 4 6 7 8 9 10 10 9 9 8 8 8 8 8 7 6 6 5 5 4 3 2 2 2 3 3 3
6 6 7 8 7 7 6 4 6 7 8 7 5 6 1 3 1 2 4 6 8 9 9 9 9 9 8 7 7 8 8 7 6 6 6 5 4 3 3 3 3 2 2 2
6 5 6 6 5 5 5 6 6 8 9 8 6 7 3 1 2 1 2 4 6 8 8 8 8 8 7 7 7 7 7 7 6 6 6 6 5 4 3 3 3 3 3 2
9 8 6 6 7 7 9 8 6 7 7 6 4 5 3 1 1 1 1 3 5 7 8 7 7 7 7 7 7 7 7 7 7 7 6 6 6 5 5 4 4 3 3 3
10 9 7 6 7 7 9 10 8 7 7 5 6 5 1 2 2 1 1 2 4 5 7 7 7 7 7 7 8 8 8 8 7 7 6 6 6 5 4 4 4 3 3 3
8 6 5 4 5 7 8 9 9 9 9 8 5 5 4 2 1 2 2 2 3 4 5 7 7 7 7 7 7 8 8 8 7 7 7 6 6 5 4 4 4 4 3 3
5 6 5 5 6 5 6 7 7 9 8 9 7 7 5 2 1 1 1 2 2 3 4 5 6 6 7 7 7 7 7 7 7 7 6 6 6 6 5 5 5 4 4 3
7 8 6 7 7 7 7 8 7 8 9 9 8 3 1 2 1 2 2 2 2 2 3 4 4 5 6 6 6 7 7 7 7 6 6 5 5 5 6 5 5 5 5 4
7 8 8 7 4 5 8 9 10 9 9 9 10 4 4 2 1 1 1 2 1 1 2 3 4 4 4 5 6 6 7 7 6 6 6 6 5 5 5 5 5 5 5 5
5 7 8 8 8 8 8 8 10 11 10 10 12 5 5 3 2 2 1 1 1 1 2 3 3 3 4 5 5 5 5 6 6 6 5 5 5 5 5 5 5 5 5 5
5 8 10 10 6 5 7 7 8 11 11 11 11 6 3 1 0 1 1 0 1 1 1 1 2 2 3 4 4 4 4 4 5 5 5 5 5 5 5 5 5 5 5 5
6 9 9 8 6 6 8 8 9 11 11 11 8 7 5 3 1 1 1 0 0 0 0 0 0 1 2 3 3 3 4 4 4 4 4 4 4 4 4 5 5 5 5 5
5 7 8 9 8 8 10 10 10 11 11 11 9 7 4 2 2 1 0 0 1 1 1 1 1 1 1 3 3 3 3 3 3 3 3 3 3 4 4 4 5 4 5 5
6 7 9 10 8 9 12 11 11 10 10 10 10 6 4 4 2 1 1 1 0 1 1 1 2 2 1 2 3 3 3 3 4 3 3 3 4 4 4 4 4 5 5 5
6 8 7 8 8 12 5 2 6 8 8 8 6 4 4 3 2 1 1 1 0 1 1 2 2 1 1 2 3 3 3 3 3 3 3 3 3 4 3 4 4 4 4 4
7 7 7 9 11 10 6 5 6 8 8 4 4 4 3 3 3 2 2 1 0 1 1 1 1 1 0 1 2 3 3 3 2 2 2 3 3 3 3 4 3 3 3 3
6 8 9 9 11 11 4 3 3 6 8 3 3 4 3 4 5 2 2 1 0 0 1 1 1 1 0 0 1 2 2 3 2 2 2 2 3 3 3 3 3 2 3 3
8 8 12 13 12 8 1 3 5 8 3 3 4 4 3 3 2 1 1 1 0 0 1 1 1 0 0 0 1 2 2 2 2 2 2 2 2 3 3 2 1 1 2 1
8 8 9 9 11 7 4 4 4 1 2 3 3 2 1 1 1 1 1 1 1 0 1 1 0 0 0 0 1 2 2 2 2 2 2 2 2 2 1 1 2 2 2 2
6 5 4 5 3 2 1 1 1 0 2 2 2 2 2 1 1 1 1 1 1 1 1 1 0 1 1 1 1 2 1 1 1 2 2 2 2 1 1 2 2 2 2 1
4 3 4 4 3 1 1 0 1 1 2 2 2 2 2 2 2 2 2 2 2 2 1 1 1 2 1 1 1 1 1 1 2 2 2 2 2 2 2 1 1 1 1 1
4 5 6 6 4 2 3 2 1 1 1 2 1 1 2 2 2 2 2 3 2 2 1 1 2 2 2 1 1 1 1 2 2 2 2 2 2 2 2 1 0 0 1 0
6 7 7 5 4 4 4 3 2 2 2 1 1 0 1 1 2 2 2 2 2 2 2 2 2 2 2 1 1 1 1 2 2 2 2 2 2 2 1 1 2 4 2 4
Wind_Direction
210 226 230 236 247 270 275 279 285 311 355 284 298 303 156 169 192 191 188 187 188 185 177 176 179 184 183 182 183 184 178 169 178 177 180 168 165 166 149 151 137 139 130 127
217 229 239 245 246 251 256 259 264 262 176 270 298 299 153 168 197 201 198 195 195 187 179 181 185 188 190 188 191 189 187 180 186 179 178 172 166 170 153 146 135 146 139 149
227 234 227 231 235 241 245 256 265 268 247 224 257 238 165 167 188 196 206 201 197 194 188 188 191 193 194 193 195 196 193 188 193 185 178 168 165 187 168 161 150 152 157 154
233 233 234 235 236 245 247 255 257 249 249 253 259 280 181 178 183 202 207 204 198 193 190 189 190 192 196 197 193 195 190 190 191 189 190 187 186 190 183 175 153 155 159 160
217 224 233 236 239 241 253 253 244 246 255 260 250 268 259 157 227 223 208 204 198 192 190 189 191 192 194 192 191 188 186 188 189 191 191 197 200 196 185 168 155 166 157 167
239 225 238 240 235 230 217 219 225 236 248 250 257 264 272 250 291 291 195 192 192 187 186 187 189 188 191 188 186 182 179 184 187 191 195 201 200 194 184 179 175 177 170 170
218 212 209 225 221 206 223 236 237 233 234 246 228 254 268 29 19 326 180 174 178 180 182 184 187 187 189 188 187 184 180 182 185 190 195 201 203 197 198 201 192 197 193 186
217 210 198 210 231 228 227 243 253 267 269 249 214 244 209 94 67 71 120 149 157 166 176 183 187 188 188 188 188 186 183 185 187 190 195 199 203 204 203 201 206 201 210 202
225 212 167 202 234 245 230 238 260 267 270 269 246 230 198 175 100 85 107 124 145 163 176 184 184 186 186 185 186 188 185 186 189 190 192 197 204 213 211 201 208 210 208 205
237 230 195 191 209 220 257 249 246 252 261 263 246 240 234 210 223 169 147 146 145 157 168 177 182 183 181 180 180 179 177 177 180 184 193 194 199 204 207 207 207 209 212 217
241 233 211 206 225 227 218 228 244 253 260 266 266 246 68 170 193 204 176 149 146 163 166 164 169 175 178 175 172 175 177 180 181 183 186 192 193 197 201 203 207 210 216 217
231 241 237 229 222 256 245 244 238 248 249 253 268 255 81 104 133 145 140 138 132 158 162 161 157 157 169 172 175 178 180 184 185 183 185 189 189 191 199 203 209 213 218 222
213 233 232 225 209 207 226 238 247 251 251 252 259 233 120 107 86 59 59 103 106 116 150 158 157 159 170 173 175 181 188 187 186 185 189 189 193 197 205 212 214 217 221 228
236 237 248 257 262 230 229 236 244 248 247 252 255 238 204 187 47 16 353 31 84 85 120 145 157 172 178 177 178 185 190 189 191 191 194 197 202 203 211 216 222 223 223 226
232 236 242 260 266 254 249 248 243 250 258 262 262 243 227 232 253 270 276 267 179 181 169 176 237 218 194 180 183 190 191 185 185 191 199 203 209 212 216 219 224 228 230 232
230 238 234 244 244 243 248 248 245 247 252 252 254 244 217 208 223 256 281 235 235 249 276 310 312 303 217 190 187 188 187 175 173 183 197 199 208 215 217 222 228 233 239 243
213 224 238 242 234 245 242 238 239 238 243 248 251 240 194 206 212 235 219 201 272 344 325 317 304 293 237 197 183 181 177 171 178 188 196 196 204 213 222 230 235 239 243 244
222 227 237 244 232 242 240 258 238 238 241 249 257 231 218 216 210 197 165 153 86 359 344 327 304 296 224 177 168 165 163 167 180 190 202 205 209 218 227 234 238 243 241 240
219 224 237 241 241 245 233 220 224 235 237 236 232 209 203 177 188 171 121 76 18 334 345 335 315 301 276 165 158 164 168 170 181 192 205 212 217 220 224 231 237 241 242 246
199 222 235 239 247 248 234 169 218 243 228 187 204 192 186 201 233 201 98 66 350 2 26 11 11 26 138 152 160 169 173 184 198 206 213 210 212 215 224 230 240 248 242 245
197 212 229 238 245 246 148 159 199 228 235 159 194 195 208 241 299 100 149 160 132 73 26 17 43 23 328 184 163 185 189 204 207 204 202 207 211 211 215 212 217 233 217 200
226 224 224 235 242 238 125 178 220 310 93 159 173 180 173 85 90 136 150 163 192 3 356 347 40 48 4 107 143 186 205 210 200 197 194 192 198 206 182 191 203 197 193 183
236 261 255 248 255 55 152 225 46 160 183 176 170 167 166 164 178 200 185 190 215 251 238 238 189 171 171 169 171 189 202 196 190 185 184 180 173 171 167 180 179 178 172 184
211 244 247 252 236 232 241 198 146 126 146 152 162 177 183 195 210 229 240 227 231 246 243 206 195 187 180 183 187 192 178 178 167 162 164 162 156 154 144 182 179 172 171 198
234 225 237 241 237 234 206 194 151 137 128 123 141 185 208 207 220 230 239 237 241 250 236 210 205 199 191 179 175 170 152 163 166 162 168 171 164 152 155 146 79 187 156 5
227 233 243 252 223 238 220 193 185 178 168 157 153 187 247 227 222 226 238 247 247 244 226 211 206 192 184 179 170 171 174 169 178 178 178 181 172 154 161 138 100 68 83 86
Height
1504 1502 1500 1498 1497 1497 1497 1500 1501 1500 1499 1501 1502 1503 1504 1509 1511 1513 1516 1519 1521 1524 1527 1529 1530 1531 1532 1532 1532 1533 1533 1533 1534 1534 1535 1536 1537 1537 1538 1538 1539 1539 1539 1540
1502 1500 1496 1496 1497 1498 1498 1501 1501 1499 1499 1502 1502 1502 1502 1507 1509 1511 1513 1516 1519 1522 1525 1527 1528 1529 1530 1531 1531 1532 1533 1533 1533 1534 1534 1536 1537 1538 1539 1540 1539 1540 1540 1541
1499 1496 1496 1497 1498 1499 1498 1499 1500 1501 1499 1499 1501 1502 1502 1504 1508 1510 1512 1514 1516 1519 1522 1525 1527 1528 1529 1530 1530 1531 1532 1532 1533 1534 1535 1536 1537 1539 1540 1540 1541 1541 1541 1542
1496 1494 1497 1497 1497 1497 1500 1494 1497 1499 1501 1501 1501 1509 1500 1500 1504 1507 1509 1511 1513 1516 1519 1522 1524 1526 1527 1528 1529 1530 1531 1532 1532 1533 1534 1536 1537 1539 1540 1541 1541 1542 1542 1542
1494 1494 1497 1497 1495 1496 1496 1495 1496 1497 1498 1500 1499 1503 1500 1497 1502 1503 1506 1508 1510 1514 1517 1520 1522 1523 1525 1527 1528 1529 1530 1531 1532 1533 1534 1535 1537 1538 1540 1540 1541 1542 1542 1543
1492 1494 1494 1494 1494 1495 1495 1496 1496 1495 1495 1508 1502 1504 1505 1496 1500 1500 1503 1506 1509 1512 1515 1518 1520 1522 1523 1525 1526 1528 1528 1529 1530 1532 1533 1534 1536 1537 1538 1539 1540 1541 1542 1542
1495 1492 1493 1494 1494 1495 1495 1498 1506 1509 1507 1506 1497 1502 1503 1496 1498 1500 1502 1505 1507 1510 1513 1515 1517 1519 1521 1523 1524 1526 1526 1528 1529 1531 1532 1533 1535 1536 1537 1538 1540 1541 1542 1542
1497 1497 1491 1491 1492 1493 1492 1494 1506 1515 1510 1501 1498 1501 1496 1496 1498 1501 1502 1503 1506 1508 1511 1513 1515 1517 1519 1520 1522 1523 1524 1526 1527 1529 1530 1532 1534 1536 1537 1538 1539 1540 1541 1541
1490 1493 1489 1491 1491 1490 1491 1491 1486 1494 1498 1503 1497 1494 1494 1495 1498 1500 1501 1503 1504 1507 1509 1511 1513 1515 1516 1518 1519 1521 1522 1524 1526 1527 1529 1530 1532 1534 1535 1536 1537 1538 1539 1540
1486 1494 1489 1490 1491 1491 1489 1487 1490 1495 1510 1512 1502 1497 1495 1495 1497 1498 1500 1502 1504 1506 1508 1510 1511 1513 1514 1516 1517 1519 1520 1522 1523 1525 1527 1529 1530 1531 1533 1534 1535 1536 1536 1537
1485 1493 1492 1490 1491 1489 1491 1491 1491 1491 1494 1506 1508 1499 1487 1493 1495 1497 1499 1502 1504 1506 1507 1508 1510 1511 1513 1514 1516 1517 1519 1520 1522 1523 1525 1527 1528 1529 1531 1531 1532 1533 1534 1535
1488 1487 1491 1489 1487 1488 1487 1487 1490 1499 1500 1496 1499 1499 1489 1492 1495 1497 1499 1502 1504 1505 1506 1508 1509 1510 1511 1513 1514 1516 1517 1519 1520 1522 1523 1525 1526 1527 1528 1529 1530 1530 1531 1532
1489 1490 1500 1497 1493 1490 1488 1488 1486 1485 1488 1493 1497 1497 1491 1494 1496 1498 1500 1502 1504 1505 1506 1507 1508 1509 1510 1511 1512 1514 1515 1517 1519 1520 1522 1523 1524 1525 1526 1526 1527 1528 1528 1529
1490 1488 1493 1496 1489 1485 1489 1490 1489 1487 1490 1490 1489 1491 1491 1493 1497 1499 1501 1502 1504 1505 1506 1506 1507 1508 1509 1510 1511 1512 1514 1515 1517 1518 1519 1520 1521 1522 1523 1524 1525 1525 1525 1526
1488 1489 1488 1487 1485 1486 1489 1489 1489 1489 1486 1487 1486 1487 1491 1493 1497 1500 1501 1502 1503 1504 1505 1505 1506 1506 1507 1508 1509 1510 1512 1513 1514 1515 1516 1518 1519 1520 1521 1521 1522 1523 1523 1523
1489 1489 1489 1491 1487 1487 1489 1488 1487 1488 1486 1486 1486 1488 1490 1495 1498 1500 1501 1502 1502 1502 1503 1504 1505 1505 1505 1506 1506 1508 1509 1510 1512 1513 1514 1515 1516 1517 1518 1518 1519 1519 1520 1520
1487 1490 1492 1490 1487 1489 1490 1483 1483 1484 1483 1483 1485 1486 1490 1494 1497 1499 1500 1501 1501 1502 1503 1503 1503 1503 1503 1504 1505 1506 1507 1509 1510 1510 1511 1512 1513 1514 1515 1515 1516 1516 1516 1516
1489 1491 1489 1488 1493 1501 1483 1479 1479 1482 1483 1483 1483 1486 1490 1494 1497 1499 1500 1501 1501 1501 1502 1502 1502 1502 1503 1503 1504 1504 1506 1507 1508 1508 1509 1510 1511 1511 1512 1512 1512 1513 1513 1513
1488 1490 1488 1487 1489 1486 1482 1480 1481 1483 1483 1484 1485 1488 1491 1494 1496 1497 1499 1500 1501 1501 1501 1501 1502 1502 1501 1502 1502 1503 1504 1505 1506 1506 1507 1507 1508 1509 1509 1509 1509 1509 1509 1509
1488 1488 1488 1487 1492 1491 1479 1478 1481 1484 1484 1486 1487 1489 1491 1492 1490 1494 1498 1499 1500 1500 1500 1500 1500 1500 1500 1501 1501 1502 1502 1502 1503 1504 1505 1505 1505 1506 1507 1507 1506 1506 1506 1506
1487 1489 1487 1486 1487 1477 1478 1481 1483 1488 1484 1486 1487 1489 1491 1491 1492 1496 1497 1498 1499 1499 1499 1499 1499 1499 1499 1499 1499 1500 1500 1501 1501 1502 1503 1503 1503 1504 1504 1504 1504 1504 1504 1504
1482 1482 1485 1484 1486 1482 1480 1481 1482 1484 1486 1486 1488 1490 1492 1493 1494 1495 1497 1497 1498 1498 1498 1498 1498 1498 1497 1498 1498 1498 1499 1499 1500 1500 1501 1501 1501 1502 1502 1502 1502 1502 1502 1502
1480 1479 1476 1478 1480 1482 1482 1483 1485 1486 1487 1488 1489 1491 1492 1493 1494 1495 1496 1496 1496 1497 1497 1497 1497 1496 1496 1497 1497 1497 1498 1498 1498 1498 1499 1499 1500 1500 1500 1500 1500 1500 1500 1500
1481 1483 1482 1481 1480 1483 1484 1485 1486 1487 1487 1488 1490 1490 1491 1492 1493 1494 1495 1495 1496 1496 1496 1495 1495 1495 1495 1496 1496 1496 1496 1496 1497 1497 1497 1498 1498 1499 1499 1499 1499 1499 1499 1499
1479 1481 1480 1481 1482 1484 1484 1485 1486 1487 1488 1488 1489 1490 1491 1491 1492 1493 1493 1494 1494 1494 1494 1494 1494 1494 1494 1494 1494 1494 1495 1495 1495 1496 1496 1496 1497 1497 1497 1497 1497 1497 1498 1498
1479 1479 1479 1477 1481 1482 1483 1485 1486 1487 1487 1488 1489 1489 1490 1491 1491 1491 1492 1492 1492 1492 1492 1492 1492 1492 1492 1492 1492 1493 1493 1493 1494 1494 1494 1495 1495 1495 1495 1496 1496 1496 1496 1496